Location: Celina Elementary School
(33.3262°N, 96.7767°W)
Time: 09:06:04
(UTC+00:00)

Cosmos 968 Rocket - Pass Details

Date: 26 November 2021
Orbit: 741 x 770 km, 74.0° (Epoch: 20 January)

Event Time Altitude Azimuth Distance (km) Brightness Sun altitude
Rises 12:36:09 0° 210° (SSW) 3,203 6.6 -7.1°
Reaches altitude 10° 12:38:36 10° 215° (SW) 2,277 5.8 -6.6°
Maximum altitude 12:43:34 48° 290° (WNW) 979 3.7 -5.7°
Drops below altitude 10° 12:48:32 10° 4° (N) 2,270 5.8 -4.7°
Sets 12:50:59 0° 11° (N) 3,193 6.6 -4.2°
